Home > Time Zones > World Clock > Weather > U.S.A. > Waco > Past weeks

Flag for U.S.A. Weather past 2 weeks in Waco, Texas, U.S.A.

Now
47 °F

Low clouds.


Feels Like: 43 °F
Forecast: 41 / 54 °F
Wind: 7 mph from North

Location: Waco Regional Airport

Current Time: Dec 20, 2014 at 7:47:12 AM

Latest Report: Dec 20, 2014 at 6:51 AM


Visibility: 7 mi

Pressure: 30.22 "Hg

Humidity: 93%

Dew point: 45 °F

Location of WacoLocation

Historic Weather in Waco — Graph

°F

Waco temperature yesterday

Maximum temperature yesterday: 49 °F (at 2:01 PM)
Minimum temperature yesterday: 46 °F (at 4:51 AM)
Average temperature yesterday: 48 °F

Past Weeks' High & Low Weather Summary

 TemperatureHumidityPressure
High74 °F (Dec 5, 1:51 PM)100% (Dec 8, 4:51 AM)30.41 "Hg (Dec 8, 4:51 AM)
Low35 °F (Dec 9, 3:51 AM)28% (Dec 15, 3:51 PM)29.80 "Hg (Dec 14, 5:51 PM)
Average54 °F81%30.18 "Hg
* Reported Dec 5 5:51 AM — Dec 20 5:51 AM, Waco, Weather by CustomWeather, © 2014

Note: Actual official high and low records may vary slightly from our data, if they occured in-between our weather recording intervals... More about our weather records

Advertising

Waco weather history for previous 24 hours

 ConditionsComfort  
Time TempWeatherWind HumidityBarometerVisibility
5:51 AM
Dec 20
47 °FFog.6 mph93%30.20 "Hg6 mi
4:51 AM48 °FFog.7 mph89%30.20 "Hg6 mi
3:51 AM48 °FFog.5 mph89%30.20 "Hg5 mi
3:01 AM48 °FFog.6 mph93%30.20 "Hg5 mi
2:51 AM48 °FFog.6 mph89%30.20 "Hg6 mi
1:51 AM48 °FFog.8 mph89%30.19 "Hg6 mi
1:00 AM48 °FFog.7 mph93%30.19 "Hg6 mi
11:51 PM
Dec 19
48 °FOvercast.7 mph89%30.21 "Hg7 mi
10:51 PM48 °FOvercast.10 mph89%30.21 "Hg7 mi
9:51 PM48 °FOvercast.5 mph93%30.21 "Hg7 mi
8:51 PM48 °FOvercast.7 mph93%30.19 "Hg8 mi
7:58 PM49 °FOvercast.7 mph86%30.18 "Hg9 mi
7:51 PM49 °FOvercast.9 mph86%30.18 "Hg10 mi
6:51 PM49 °FOvercast.8 mph90%30.17 "Hg8 mi
5:51 PM49 °FLow clouds.9 mph90%30.16 "Hg9 mi
4:51 PM49 °FLow clouds.15 mph86%30.15 "Hg9 mi
3:58 PM49 °FOvercast.12 mph90%30.14 "Hg8 mi
2:51 PM49 °FLow clouds.10 mph90%30.13 "Hg7 mi
2:01 PM49 °FFog.12 mph93%30.13 "Hg4 mi
12:51 PM48 °FFog.12 mph96%30.14 "Hg3 mi
11:51 AM48 °FFog.13 mph96%30.16 "Hg4 mi
10:51 AM48 °FFog.12 mph96%30.18 "Hg5 mi
9:51 AM48 °FFog.10 mph93%30.17 "Hg5 mi
8:51 AM47 °FFog.10 mph97%30.14 "Hg4 mi
7:51 AM47 °FLight rain. Fog.8 mph93%30.12 "Hg3 mi
Weather by CustomWeather, © 2014

See weather overviewHow to use our weather pages